TimeCDT,TemperatureF,Dew PointF,Humidity,Sea Level PressureIn,VisibilityMPH,Wind Direction,Wind SpeedMPH,Gust SpeedMPH,PrecipitationIn,Events,Conditions,WindDirDegrees,DateUTC
12:53 AM,80.1,62.1,54,29.80,10.0,Calm,Calm,-,N/A,,Clear,0,2013-06-27 05:53:00
1:53 AM,79.0,61.0,54,29.81,10.0,Calm,Calm,-,N/A,,Clear,0,2013-06-27 06:53:00
2:53 AM,77.0,62.1,60,29.81,10.0,SSE,3.5,-,N/A,,Clear,150,2013-06-27 07:53:00
3:53 AM,78.1,63.0,60,29.82,10.0,ESE,4.6,-,N/A,,Clear,120,2013-06-27 08:53:00
4:53 AM,75.9,62.1,62,29.82,10.0,SE,6.9,-,N/A,,Clear,130,2013-06-27 09:53:00
5:53 AM,73.0,63.0,71,29.83,10.0,South,6.9,-,N/A,,Clear,170,2013-06-27 10:53:00
6:53 AM,72.0,63.0,73,29.84,10.0,South,5.8,-,N/A,,Clear,190,2013-06-27 11:53:00
7:53 AM,73.9,64.0,71,29.85,10.0,SSW,5.8,-,N/A,,Clear,200,2013-06-27 12:53:00
8:53 AM,81.0,64.9,58,29.86,10.0,South,10.4,-,N/A,,Clear,180,2013-06-27 13:53:00
9:53 AM,86.0,64.9,49,29.86,10.0,SSW,11.5,-,N/A,,Clear,200,2013-06-27 14:53:00
10:53 AM,91.9,63.0,38,29.85,10.0,South,6.9,-,N/A,,Clear,190,2013-06-27 15:53:00
11:53 AM,96.1,62.1,32,29.84,10.0,SSE,9.2,-,N/A,,Clear,150,2013-06-27 16:53:00
12:53 PM,100.0,61.0,28,29.84,10.0,SSE,10.4,-,N/A,,Clear,160,2013-06-27 17:53:00
1:53 PM,104.0,55.9,20,29.83,10.0,Variable,5.8,-,N/A,,Clear,0,2013-06-27 18:53:00
2:53 PM,106.0,48.0,14,29.81,10.0,WSW,3.5,19.6,N/A,,Clear,240,2013-06-27 19:53:00
3:53 PM,108.0,44.1,12,29.78,10.0,SSE,6.9,-,N/A,,Clear,150,2013-06-27 20:53:00
4:53 PM,107.1,44.1,12,29.75,10.0,SW,5.8,-,N/A,,Clear,220,2013-06-27 21:53:00
5:53 PM,107.1,44.1,12,29.75,10.0,West,5.8,-,N/A,,Clear,280,2013-06-27 22:53:00
6:53 PM,89.1,59.0,36,29.78,8.0,NE,13.8,24.2,0.03,Rain-Thunderstorm,Light Rain,50,2013-06-27 23:53:00
7:25 PM,89.6,60.8,38,29.97,10.0,East,6.9,-,0.00,,Clear,80,2013-06-28 00:25:00
7:33 PM,91.4,53.6,28,29.96,10.0,East,9.2,-,0.00,Thunderstorm,Clear,100,2013-06-28 00:33:00
7:48 PM,89.6,51.8,27,29.96,10.0,East,13.8,-,0.00,,Clear,100,2013-06-28 00:48:00
7:53 PM,90.0,52.0,27,29.81,10.0,East,13.8,21.9,0.00,,Clear,100,2013-06-28 00:53:00
8:53 PM,86.0,55.0,35,29.87,10.0,SE,5.8,-,N/A,,Clear,130,2013-06-28 01:53:00
9:53 PM,80.1,60.1,50,29.93,10.0,SE,4.6,-,N/A,,Clear,140,2013-06-28 02:53:00
10:53 PM,78.1,60.1,54,29.94,10.0,North,3.5,-,N/A,,Clear,360,2013-06-28 03:53:00
11:53 PM,75.0,62.1,64,29.94,10.0,NNW,4.6,-,N/A,,Clear,340,2013-06-28 04:53:00